ROMMA est une association bénévole à but non lucratif. Votre soutien est indispensable : ADHERER à ROMMA ou FAIRE un DON

Sorgia - (01, Ain)

Jura Gessien (1380 m)   Longitude: 05° 51' 34" E   Latitude: 46° 08' 09" N Station partenaire n°112
 

Détail journalier du     <<     >>

Température Precipitation Humidité Vent Dir Rafale Dir. rafale Ensol.
Heure (°C) (mm) (%) (km/h) (km/h) (min)
01:00 14.806312NE18NE0
02:00 15.305913NE21ENE0
03:00 14.606112NE19NE0
04:00 13.806311NE15NE0
05:00 13.806212NE18NE0
06:00 13.706412NE18NE0
07:00 12.307212NNE18NNE0
08:00 14.30668NNE15NNE0
09:00 16.20564NNO10NNO55
10:00 16.40586ONO13NNO60
11:00 16.80576O16OSO40
12:00 17.40557O18OSO60
13:00 18.40507SO24SO60
14:00 19.70438SSO21OSO60
15:00 21.30379O23NO60
16:00 21.50429O23OSO60
17:00 21.70399O26OSO60
18:00 21.203810O26OSO60
19:00 20.203912O24O60
20:00 18.404310O27ONO55
21:00
22:00
23:00
minuit

Graphique du 17-07-2019

 

Serveur OMMA